sat.trackr.live / text

‹ back to catalog

STARLINK-30511

NORAD 57978 · 2023-151Q

PAYLOAD ACTIVE UNKNOWN

§ Identity

Operator
Country
US
Launch date
2023-09-30
Launch site
AFETR
Launch vehicle
Mass (kg)
RCS (m²)

Purposes: comms

External: N2YO · Heavens-Above · Gunter

§ Orbital elements

Epoch: 2026-09-20T11:35:19.485888Z

Period
94.27 min
Inclination
43.0038°
Eccentricity
0.0001398
Mean motion
15.27575821 rev/d
Perigee alt
482.1 km
Apogee alt
484.0 km
Semi-major
6,861.2 km
B*
3.7169e-6
RAAN
330.6721°
Arg perigee
276.0826°
Mean anomaly
83.9866°
Rev number
16,538

§ Raw data

STARLINK-305111 57978U 23151Q   26263.48286442 -.00000160  00000+0  37169-5 0  99932 57978  43.0038 330.6721 0001398 276.0826  83.9866 15.27575821165386

JSON: /api/v1/satellites/57978 · /tle

For live sub-satellite position, see the globe view (requires WebGL).

§ Visibility from observer

Set your observer location to see the next 7 days of passes ≥ 10°. The values pass through the URL so the page stays shareable.

No JS? Fill the form by hand. The geolocation button needs JavaScript.